Previsão horária em Faro

Hoje, 16 Janeiro, Sábado

Tempo Temperatura Precipitação Vento Pressão Humidade
00:00 +6°C° 0 mm 4 m/s 769 mmHg 86%
01:00 +6°C° 0 mm 4 m/s 769 mmHg 86%
02:00 +6°C° 0 mm 4 m/s 769 mmHg 85%
03:00 +6°C° 0 mm 4 m/s 769 mmHg 85%
04:00 +5°C° 0 mm 3 m/s 769 mmHg 84%
05:00 +5°C° 0 mm 3 m/s 769 mmHg 84%
06:00 +7°C° 0 mm 3 m/s 769 mmHg 82%
07:00 +7°C° 0 mm 3 m/s 770 mmHg 81%
08:00 +7°C° 0 mm 3 m/s 770 mmHg 79%
09:00 +9°C° 0 mm 3 m/s 770 mmHg 70%
10:00 +12°C° 0 mm 3 m/s 770 mmHg 62%
11:00 +15°C° 0 mm 2 m/s 770 mmHg 54%
12:00 +15°C° 0 mm 2 m/s 769 mmHg 52%
13:00 +16°C° 0 mm 2 m/s 769 mmHg 50%
14:00 +18°C° 0 mm 1 m/s 769 mmHg 48%
15:00 +15°C° 0 mm 1 m/s 769 mmHg 57%
16:00 +13°C° 0 mm 1 m/s 769 mmHg 66%
17:00 +11°C° 0 mm 1 m/s 769 mmHg 75%
18:00 +10°C° 0 mm 1 m/s 769 mmHg 76%
19:00 +9°C° 0 mm 2 m/s 770 mmHg 77%
20:00 +8°C° 0 mm 2 m/s 770 mmHg 78%
21:00 +8°C° 0 mm 2 m/s 770 mmHg 76%
22:00 +8°C° 0 mm 2 m/s 770 mmHg 75%
23:00 +8°C° 0 mm 3 m/s 770 mmHg 74%

Amanhã, 17 Janeiro, Domingo

Tempo Temperatura Precipitação Vento Pressão Humidade
00:00 +8°C° 0 mm 3 m/s 770 mmHg 73%
01:00 +8°C° 0 mm 3 m/s 769 mmHg 73%
02:00 +8°C° 0 mm 3 m/s 769 mmHg 72%
03:00 +7°C° 0 mm 3 m/s 769 mmHg 73%
04:00 +7°C° 0 mm 3 m/s 769 mmHg 74%
05:00 +7°C° 0 mm 3 m/s 769 mmHg 76%
06:00 +8°C° 0 mm 3 m/s 769 mmHg 73%
07:00 +9°C° 0 mm 3 m/s 770 mmHg 69%
08:00 +10°C° 0 mm 3 m/s 770 mmHg 66%
09:00 +12°C° 0 mm 3 m/s 770 mmHg 59%
10:00 +16°C° 0 mm 3 m/s 770 mmHg 51%
11:00 +18°C° 0 mm 2 m/s 770 mmHg 43%
12:00 +18°C° 0 mm 2 m/s 769 mmHg 44%
13:00 +18°C° 0 mm 2 m/s 769 mmHg 45%
14:00 +19°C° 0 mm 2 m/s 768 mmHg 45%
15:00 +16°C° 0 mm 1 m/s 768 mmHg 56%
16:00 +14°C° 0 mm 1 m/s 769 mmHg 67%
17:00 +11°C° 0 mm 1 m/s 769 mmHg 77%
18:00 +11°C° 0 mm 1 m/s 769 mmHg 75%
19:00 +10°C° 0 mm 1 m/s 769 mmHg 73%
20:00 +9°C° 0 mm 2 m/s 769 mmHg 72%
21:00 +9°C° 0 mm 2 m/s 769 mmHg 70%
22:00 +9°C° 0 mm 1 m/s 769 mmHg 68%
23:00 +9°C° 0 mm 1 m/s 769 mmHg 67%

Depois de amanhã, 18 Janeiro, Segunda-feira

Tempo Temperatura Precipitação Vento Pressão Humidade
00:00 +9°C° 0 mm 1 m/s 769 mmHg 67%
01:00 +9°C° 0 mm 1 m/s 768 mmHg 66%
02:00 +9°C° 0 mm 1 m/s 768 mmHg 66%
03:00 +8°C° 0 mm 1 m/s 768 mmHg 67%
04:00 +7°C° 0 mm 2 m/s 768 mmHg 67%
05:00 +7°C° 0 mm 2 m/s 767 mmHg 68%
06:00 +8°C° 0 mm 2 m/s 768 mmHg 68%
07:00 +9°C° 0 mm 2 m/s 768 mmHg 68%
08:00 +10°C° 0 mm 2 m/s 768 mmHg 68%
09:00 +12°C° 0 mm 2 m/s 768 mmHg 64%
10:00 +13°C° 0 mm 3 m/s 768 mmHg 60%
11:00 +16°C° 0 mm 3 m/s 769 mmHg 56%
12:00 +16°C° 0 mm 3 m/s 768 mmHg 55%
13:00 +17°C° 0 mm 2 m/s 767 mmHg 55%
14:00 +17°C° 0 mm 2 m/s 767 mmHg 54%
15:00 +15°C° 0 mm 2 m/s 767 mmHg 65%
16:00 +12°C° 0 mm 1 m/s 767 mmHg 77%
17:00 +10°C° 0 mm 1 m/s 767 mmHg 88%
18:00 +10°C° 0 mm 1 m/s 767 mmHg 88%
19:00 +9°C° 0 mm 1 m/s 768 mmHg 88%
20:00 +8°C° 0 mm 0 m/s 768 mmHg 89%
21:00 +9°C° 0 mm 1 m/s 768 mmHg 88%
22:00 +9°C° 0 mm 1 m/s 768 mmHg 88%
23:00 +8°C° 0 mm 1 m/s 768 mmHg 88%

19 Janeiro, Terça-feira

Tempo Temperatura Precipitação Vento Pressão Humidade
00:00 +8°C° 0 mm 1 m/s 768 mmHg 89%
01:00 +8°C° 0 mm 1 m/s 767 mmHg 90%
02:00 +8°C° 0 mm 1 m/s 767 mmHg 91%
03:00 +8°C° 0 mm 2 m/s 767 mmHg 91%
04:00 +9°C° 0 mm 2 m/s 767 mmHg 91%
05:00 +10°C° 0 mm 2 m/s 766 mmHg 91%
06:00 +10°C° 0 mm 2 m/s 767 mmHg 90%
07:00 +12°C° 0 mm 2 m/s 767 mmHg 89%
08:00 +12°C° 0 mm 2 m/s 767 mmHg 89%
09:00 +12°C° 0 mm 3 m/s 767 mmHg 82%
10:00 +13°C° 0 mm 3 m/s 766 mmHg 76%
11:00 +15°C° 0 mm 4 m/s 766 mmHg 69%
12:00 +14°C° 0 mm 4 m/s 766 mmHg 70%
13:00 +14°C° 0 mm 4 m/s 765 mmHg 71%
14:00 +14°C° 0 mm 5 m/s 765 mmHg 72%
15:00 +13°C° 0 mm 5 m/s 765 mmHg 75%
16:00 +13°C° 0 mm 5 m/s 764 mmHg 79%
17:00 +12°C° 0 mm 5 m/s 764 mmHg 83%
18:00 +12°C° 0 mm 5 m/s 764 mmHg 83%
19:00 +11°C° 0 mm 6 m/s 764 mmHg 84%
20:00 +11°C° 0 mm 6 m/s 764 mmHg 84%
21:00 +13°C° 0 mm 6 m/s 764 mmHg 83%
22:00 +12°C° 0 mm 7 m/s 763 mmHg 83%
23:00 +12°C° 0 mm 7 m/s 763 mmHg 83%

20 Janeiro, Quarta-feira

Tempo Temperatura Precipitação Vento Pressão Humidade
00:00 +12°C° 0 mm 8 m/s 762 mmHg 83%
01:00 +12°C° 0 mm 8 m/s 761 mmHg 84%
02:00 +12°C° 0 mm 9 m/s 761 mmHg 84%
03:00 +12°C° 0.1 mm 10 m/s 760 mmHg 85%
04:00 +13°C° 0.1 mm 10 m/s 759 mmHg 85%
05:00 +13°C° 0.1 mm 11 m/s 758 mmHg 86%
06:00 +13°C° 1.4 mm 12 m/s 758 mmHg 89%
07:00 +13°C° 1.4 mm 12 m/s 758 mmHg 91%
08:00 +13°C° 1.4 mm 13 m/s 758 mmHg 94%
09:00 +14°C° 5.3 mm 12 m/s 758 mmHg 89%
10:00 +14°C° 5.3 mm 11 m/s 758 mmHg 85%
11:00 +16°C° 5.3 mm 10 m/s 758 mmHg 80%
12:00 +16°C° 0.1 mm 10 m/s 758 mmHg 77%
13:00 +16°C° 0.1 mm 9 m/s 757 mmHg 75%
14:00 +17°C° 0.1 mm 9 m/s 757 mmHg 73%
15:00 +15°C° 0.1 mm 8 m/s 758 mmHg 79%
16:00 +13°C° 0.1 mm 8 m/s 758 mmHg 85%
17:00 +12°C° 0.1 mm 7 m/s 759 mmHg 91%
18:00 +12°C° 0.1 mm 7 m/s 759 mmHg 93%
19:00 +11°C° 0.1 mm 6 m/s 760 mmHg 94%
20:00 +11°C° 0.1 mm 6 m/s 760 mmHg 96%
21:00 +11°C° 0.1 mm 6 m/s 761 mmHg 96%
22:00 +11°C° 0.1 mm 6 m/s 761 mmHg 96%
23:00 +12°C° 0.1 mm 5 m/s 761 mmHg 96%

21 Janeiro, Quinta-feira

Tempo Temperatura Precipitação Vento Pressão Humidade
00:00 +12°C° 0.1 mm 5 m/s 761 mmHg 97%
01:00 +10°C° 0.1 mm 5 m/s 761 mmHg 97%
02:00 +10°C° 0.1 mm 5 m/s 761 mmHg 97%
03:00 +10°C° 0.2 mm 5 m/s 761 mmHg 97%
04:00 +10°C° 0.2 mm 6 m/s 761 mmHg 97%
05:00 +10°C° 0.2 mm 6 m/s 761 mmHg 97%
06:00 +11°C° 0.1 mm 6 m/s 761 mmHg 96%
07:00 +13°C° 0.1 mm 6 m/s 762 mmHg 95%
08:00 +12°C° 0.1 mm 7 m/s 762 mmHg 94%
09:00 +14°C° 0 mm 7 m/s 762 mmHg 88%
10:00 +15°C° 0 mm 8 m/s 762 mmHg 81%
11:00 +16°C° 0 mm 9 m/s 762 mmHg 75%
12:00 +16°C° 0 mm 9 m/s 762 mmHg 79%
13:00 +15°C° 0 mm 9 m/s 761 mmHg 83%
14:00 +15°C° 0 mm 9 m/s 761 mmHg 87%
15:00 +15°C° 0.3 mm 9 m/s 761 mmHg 90%
16:00 +15°C° 0.3 mm 9 m/s 761 mmHg 92%
17:00 +15°C° 0.3 mm 9 m/s 761 mmHg 95%
18:00 +13°C° 0.2 mm 8 m/s 761 mmHg 95%
19:00 +14°C° 0.2 mm 7 m/s 761 mmHg 96%
20:00 +13°C° 0.2 mm 6 m/s 762 mmHg 97%
21:00 +13°C° 0 mm 6 m/s 762 mmHg 97%
22:00 +11°C° 0 mm 6 m/s 762 mmHg 96%
23:00 +11°C° 0 mm 7 m/s 762 mmHg 96%
Mostrar mais

Necessitamos do seu Consentimento

A Meteoprog e os seus Fornecedores de Serviços podem armazenar e aceder a dados pessoais como cookies, identificadores do dispositivo ou outras tecnologias semelhantes existentes no seu dispositivo e processar estes dados para personalizar conteúdos e anúncios, assim como funcionalidades nas redes sociais e análise de tráfego.

  • Armazenar e/ou aceder a informações no seu dispositivo

    Os cookies, identificadores do dispositivo ou outras informações podem ser armazenados ou acedidos no seu dispositivo, para os fins acima indicados.

  • Anúncios e conteúdos personalizados, medição de anúncios e conteúdos, dados sobre o público-alvo e desenvolvimento de produtos

    Os anúncios e os conteúdos podem ser personalizados com base num perfil. Podem ser adicionados dados adicionais para uma maior personalização dos anúncios e dos conteúdos. A eficácia dos anúncios e dos conteúdos pode ser medida. Podem ser obtidas informações sobre o público que visualizou os anúncios e os conteúdos. Estes dados podem ser usados para desenvolver ou melhorar sistemas, softwares ou a experiência do utilizador.

Ao clicar em "Eu concordo”, permitirá o uso de cookies, identificadores do dispositivo e web beacons mencionados ou outras tecnologias semelhantes. As configurações do navegador do seu dispositivo podem ser alteradas.

Para certos fins, podem ser invocados interesses legítimos ao invés de consentimento. Pode ler mais informação sobre este assunto na nossa Política de Privacidade e Cookies.